Location: Narrabri
(30.3170°S, 149.7830°E)
Time: 14:35:23
(UTC+11:00)

OTV 5 (USA 277) - Pass Details

Date: 14 October 2017
Orbit: 404 x 417 km, 43.0° (Epoch: 07 September)

Event Time Altitude Azimuth Distance (km) Brightness Sun altitude
Exits shadow 04:20:25 16° 67° (ENE) 1,162 ? -26.1°
Drops below altitude 10° 04:21:43 10° 88° (E) 1,468 ? -25.8°
Sets 04:24:15 0° 107° (ESE) 2,334 ? -25.4°
